Regional Weather Roundup
Issued by NWS

Home | Current Version | Previous Version | Graphics & Text | Print | Product List | Glossary On
Versions: 1 2 3 4 5 6 7 8 9 10 11 12 13 14 15 16 17 18 19 20 21 22 23 24 25 26 27 28 29 30 31 32 33 34 35 36 37 38 39 40 41 42 43 44 45 46 47 48 49 50
000
ASUS43 KMKX 220400
RWRWI

WISCONSIN REGIONAL WEATHER ROUNDUP
NATIONAL WEATHER SERVICE MILWAUKEE/SULLIVAN WI
1000 PM CST SUN DEC 21 2014

NOTE: "FAIR" INDICATES FEW OR NO CLOUDS BELOW 12,000 FEET WITH NO
SIGNIFICANT WEATHER AND/OR OBSTRUCTIONS TO VISIBILITY.

WIZ001-002-006>008-014>016-023>028-220500-
NORTHWEST WISCONSIN

CITY           SKY/WX    TMP DP  RH WIND       PRES   REMARKS
SUPERIOR ARPT  CLOUDY    35  33  93 S3        29.75S
ASHLAND        CLOUDY    34  33  96 S5        29.79S WCI  30
HAYWARD        LGT RAIN  34  32  92 S10       29.76F WCI  26
SIREN          CLOUDY    35  35  99 S8        29.74F FOG     WCI  29
CUMBERLAND     DRIZZLE   34  32  93 SE7       29.75F WCI  28
RICE LAKE      DRIZZLE   34  34  98 SE6       29.79S WCI  29
CHETEK         RAIN      35  35  99 SE6       29.78S WCI  30
LADYSMITH      LGT RAIN  35  34  97 S8        29.81S WCI  28
EAU CLAIRE     CLOUDY    37  34  89 S10       29.79S WCI  30
MENOMONIE      RAIN      38  37  94 SE10      29.79S WCI  31
NEW RICHMOND   LGT RAIN  36  36 100 S9        29.75S WCI  29
OSCEOLA        LGT RAIN  37  37 100 SE6       29.76F WCI  32
$$

WIZ003>005-009-010-017-018-220500-
NORTH CENTRAL WISCONSIN

CITY           SKY/WX    TMP DP  RH WIND       PRES   REMARKS
MANITOWISH WTR FLURRIES  32  32 100 S9G17     29.80F WCI  24
ARBOR VITAE    LGT SNOW  34  32  92 S10       29.81S WCI  26
WOODRUFF       LGT SNOW  34  32  92 S10       29.81S WCI  26
RHINELANDER    LGT SNOW  32  30  92 S8        29.83F FOG     WCI  25
EAGLE RIVER    LGT SNOW  32  32 100 S7        29.83S WCI  26
LAND O LAKES   LGT SNOW  33  32  98 S9        29.83F WCI  25
PHILLIPS       FLURRIES  33  32  96 S8        29.80S WCI  26
TOMAHAWK       RAIN      32  31  98 CALM      29.84S
MEDFORD        FOG       32  32  99 S14       29.82S VSB 1   WCI  22
MERRILL        LGT RAIN  33  33 100 S8        29.86S WCI  26
$$

WIZ029-030-035-036-043>047-220500-
CENTRAL WISCONSIN

CITY           SKY/WX    TMP DP  RH WIND       PRES   REMARKS
WAUSAU         CLOUDY    33  32  96 S15       29.86S FOG     WCI  23
MOSINEE        MIX PCPN  32  32 100 SE13G22   29.88R WCI  22
MARSHFIELD     MIX PCPN  35  32  88 S15       29.85S FOG     WCI  25
STEVENS POINT  CLOUDY    32  31  96 S9G18     29.90S FOG     WCI  24
WAUPACA        CLOUDY    37  32  82 S10       29.94S WCI  29
WAUTOMA        NOT AVBL
WISC RAPIDS    CLOUDY    35  31  85 S9        29.90S WCI  28
CAMP DOUGLAS   NOT AVBL
$$

WIZ011>013-019>022-031-037>040-048>050-220500-
NORTHEAST WISCONSIN

CITY           SKY/WX    TMP DP  RH WIND       PRES   REMARKS
ANTIGO         LGT SNOW  32  32 100 S12       29.88S WCI  23
SHAWANO        CLOUDY    37  32  82 S9        29.95S WCI  30
OCONTO         CLOUDY    35  32  88 S10G17    29.97F WCI  27
STURGEON BAY   CLOUDY    36  32  87 S16G24    30.00F WCI  26
GREEN BAY      CLOUDY    36  30  79 S18G24    29.97S WCI  26
MANITOWOC      NOT AVBL
APPLETON       CLOUDY    34  30  86 S16       29.96S WCI  23
CLINTONVILLE   CLOUDY    34  32  93 S9        29.94S WCI  26
OSHKOSH        CLOUDY    35  29  78 S14       29.97R WCI  26
$$

WIZ032>034-041-042-053>061-220500-
SOUTHWEST WISCONSIN

CITY           SKY/WX    TMP DP  RH WIND       PRES   REMARKS
LA CROSSE      CLOUDY    39  35  86 S16       29.84R WCI  30
SPARTA         CLOUDY    37  33  87 S9G23     29.87R WCI  30
VIROQUA        CLOUDY    34  34 100 S14       29.86R WCI  25
BOSCOBEL       CLOUDY    37  32  82 S8G16     29.90F HAZE    WCI  31
PRAIRIE DU CHI CLOUDY    37  32  83 SE8       29.88F WCI  30
PLATTEVILLE    CLOUDY    35  32  90 SE14      29.92F WCI  25
$$

WIZ056-057-062-063-064-067-068-220500-
SOUTH CENTRAL WISCONSIN

CITY           SKY/WX    TMP DP  RH WIND       PRES   REMARKS
REEDSBURG      CLOUDY    35  32  88 S9        29.92R WCI  28
BARABOO/DELLS  CLOUDY    35  31  85 S18       29.92R WCI  24
LONE ROCK      NOT AVBL
MINERAL POINT  CLOUDY    36  32  87 SE17      29.91F FOG     WCI  25
MADISON        CLOUDY    35  30  82 S13       29.96S WCI  26
MIDDLETON      CLOUDY    37  32  82 S10G18    29.95F WCI  29
WATERTOWN      CLOUDY    34  31  88 S10       29.98S WCI  26
MONROE         CLOUDY    34  32  93 S14       29.95S WCI  24
JANESVILLE     CLOUDY    36  32  87 S13       29.98S WCI  27
$$

WIZ051-052-058>065-066-070>072-220500-
SOUTHEAST WISCONSIN

CITY           SKY/WX    TMP DP  RH WIND       PRES   REMARKS
MILWAUKEE      CLOUDY    37  29  72 S15       30.02F WCI  28
WAUKESHA       CLOUDY    32  28  86 SE10      30.01F WCI  24
MILWAUKEE/TIMM CLOUDY    34  28  80 S8        30.02F WCI  27
RACINE         CLOUDY    37  30  75 S15G22    30.04F WCI  28
BURLINGTON     CLOUDY    33  29  85 SE10      30.00F WCI  25
KENOSHA        CLOUDY    35  30  82 S10       30.02F WCI  27
FOND DU LAC    CLOUDY    36  29  75 S16       29.98R WCI  26
SHEBOYGAN      CLOUDY    35  30  82 S15       30.01F WCI  25
WEST BEND      CLOUDY    34  28  80 S9        30.00S WCI  26
JUNEAU         CLOUDY    34  30  86 SE15      29.98S WCI  24
$$

LSZ147-162-220500-
LAKE SUPERIOR

STATION/POSITION TIME  TEMP    WIND        PRES    WAVE
                       AIR SEA DIR/SP/G            HT/PER
                 (UTC) (F)     (DEG/KT/KT) (MB)    (FT/S)
DEVILS ISLAND    0300   34     150/ 11/ 15 1009.4F
PORT WING        0300   36     160/  4/  8 1008.5
SAXON HARBOR     0300   37     170/  2/  8 1009.1S
$$

LMZ867-665-643>646-220500-
LAKE MICHIGAN

STATION/POSITION TIME  TEMP    WIND        PRES    WAVE
                       AIR SEA DIR/SP/G            HT/PER
                 (UTC) (F)     (DEG/KT/KT) (MB)    (FT/S)
CHAMBERS ISLAND  0340   37     150/  8/ 16 1015.6F
NORTHPORT PIER   0300   36     160/ 14/ 22 1016.3F
SISTER BAY       0313          210/ 17/ 23   N/A
ALGOMA LAKESHORE 0300          210/ 23/ 29   N/A
KEWAUNEE LAKESHO 0300   37     180/ 19/ 23 1015.5F
SHEBOYGAN LAKESH 0300   38 36  180/ 25/ 27 1017.1F
PORT WASHINGTON  0340   37     190/ 13/ 21 1017.6F
MILWAUKEE LAKESH 0300   37     170/ 15/ 17   N/A
KENOSHA   LAKESH 0300   36     170/ 19/ 23 1017.3S
$$

TC  - TEMPERATURE IN CELSIUS
VSB - VISIBILITY IN STATUTE MILES
WCI - WIND CHILL INDEX
HX  - HEAT INDEX




USA.gov is the U.S. government's official web portal to all federal, state and local government web resources and services.